Weather History for KK22 - September, 2012

Change the Weather History Date:

Wednesday, September 12, 2012

  Actual Average (KJKL) Record (KJKL)
Temperature  
Mean Temperature 70 °F 70 °F  
Max Temperature 82 °F 79 °F 91 °F (1999)
Min Temperature 58 °F 60 °F 50 °F (1992)
Degree Days  
Heating Degree Days 0 1  
Month to date heating degree days 4  
Since 1 July heating degree days 6  
Cooling Degree Days 5 5  
Month to date cooling degree days 80  
Year to date cooling degree days 1058  
Growing Degree Days 20 (Base 50)    
Moisture  
Dew Point 59 °F    
Average Humidity 75    
Maximum Humidity 97    
Minimum Humidity 44    
Precipitation  
Precipitation 0.00 in 0.12 in 1.18 in (1986)
Month to date precipitation 1.32  
Year to date precipitation 34.87  
Snow  
Snow - 0.00 in - ()
Month to date snowfall 0.0  
Since 1 July snowfall 0.0  
Since 1 September snowfall 0.0  
Snow Depth -    
Sea Level Pressure  
Sea Level Pressure 30.33 in    
Wind  
Wind Speed 1 mph ()    
Max Wind Speed 5 mph    
Max Gust Speed -    
Visibility 10.0 miles    
Events      
T = Trace of Precipitation, MM = Missing Value Source: Averaged Metar Reports

Daily Weather History Graph

Daily Weather History Graph

Search for Another Location

Airport or City:

Trip Planner

Search our weather history database for the weather conditions in past years. The results will help you decide how hot, cold, wet, or windy it might be!

Date:

Astronomy

Sep. 12, 2012 Rise Set
Actual Time 7:10 AM EDT 7:42 PM EDT
Civil Twilight 6:43 AM EDT 8:08 PM EDT
Nautical Twilight 6:12 AM EDT 8:39 PM EDT
Astronomical Twilight 5:40 AM EDT 9:11 PM EDT
Moon 3:29 AM EDT (9/12) 5:26 PM EDT (9/12)
Length of Visible Light 13h 24m
Length of Day
12h 32m
Waning Crescent, 14% of the Moon is Illuminated
Sep 12
Waning Crescent
Sep 15
New
Sep 22
First Quarter
Sep 29
Full
Oct 8
Last Quarter

Hourly Weather History & Observations

Time (EDT) Temp. Heat Index Dew Point Humidity Pressure Visibility Wind Dir Wind Speed Gust Speed Precip Events Conditions
12:35 AM 60.6 °F - 58.3 °F 92% 30.31 in 10.0 mi Calm Calm - N/A   Clear
12:55 AM 59.5 °F - 57.7 °F 94% 30.31 in 10.0 mi Calm Calm - N/A   Clear
1:15 AM 59.0 °F - 58.1 °F 97% 30.30 in 10.0 mi Calm Calm - N/A   Clear
1:35 AM 59.4 °F - 58.1 °F 96% 30.30 in 10.0 mi Calm Calm - N/A   Clear
1:55 AM 59.2 °F - 57.4 °F 94% 30.31 in 10.0 mi Calm Calm - N/A   Clear
2:15 AM 60.6 °F - 58.1 °F 91% 30.31 in 10.0 mi Calm Calm - N/A   Clear
2:35 AM 59.5 °F - 57.4 °F 93% 30.31 in 10.0 mi Calm Calm - N/A   Clear
2:55 AM 59.7 °F - 57.7 °F 93% 30.31 in 10.0 mi Calm Calm - N/A   Clear
3:15 AM 59.5 °F - 57.9 °F 94% 30.31 in 10.0 mi Calm Calm - N/A   Clear
3:35 AM 59.4 °F - 58.1 °F 96% 30.31 in 10.0 mi Calm Calm - N/A   Clear
3:55 AM 59.4 °F - 58.1 °F 96% 30.31 in 10.0 mi Calm Calm - N/A   Clear
4:15 AM 59.9 °F - 57.7 °F 93% 30.31 in 10.0 mi Calm Calm - N/A   Clear
4:35 AM 59.9 °F - 57.9 °F 93% 30.31 in 10.0 mi Calm Calm - N/A   Clear
4:55 AM 60.4 °F - 57.7 °F 91% 30.32 in 10.0 mi South 4.6 mph - N/A   Clear
5:15 AM 60.3 °F - 57.7 °F 91% 30.32 in 10.0 mi Calm Calm - N/A   Clear
5:35 AM 58.8 °F - 57.2 °F 94% 30.32 in 10.0 mi Calm Calm - N/A   Clear
5:55 AM 59.7 °F - 57.4 °F 92% 30.33 in 10.0 mi Calm Calm - N/A   Clear
6:15 AM 59.5 °F - 57.2 °F 92% 30.34 in 10.0 mi Calm Calm - N/A   Clear
6:35 AM 58.6 °F - 56.8 °F 94% 30.34 in 10.0 mi Calm Calm - N/A   Clear
6:55 AM 58.5 °F - 57.0 °F 95% 30.35 in 10.0 mi Calm Calm - N/A   Scattered Clouds
7:15 AM 58.5 °F - 56.7 °F 94% 30.35 in 10.0 mi Calm Calm - N/A   Scattered Clouds
7:35 AM 59.4 °F - 56.8 °F 91% 30.36 in 10.0 mi Calm Calm - N/A   Scattered Clouds
7:55 AM 59.9 °F - 57.2 °F 91% 30.37 in 10.0 mi Calm Calm - N/A   Scattered Clouds
8:15 AM 60.4 °F - 57.4 °F 90% 30.37 in 10.0 mi SSW 3.5 mph - N/A   Scattered Clouds
8:35 AM 61.0 °F - 57.6 °F 88% 30.37 in 10.0 mi South 3.5 mph - N/A   Clear
9:15 AM 65.3 °F - 59.0 °F 80% 30.38 in 10.0 mi South 3.5 mph - N/A   Clear
9:35 AM 66.9 °F - 59.2 °F 76% 30.38 in 10.0 mi South 3.5 mph - N/A   Clear
9:55 AM 68.7 °F - 59.7 °F 73% 30.39 in 10.0 mi Calm Calm - N/A   Clear
10:55 AM 71.6 °F - 59.9 °F 66% 30.40 in 10.0 mi SW 3.5 mph - N/A   Clear
11:15 AM 73.2 °F - 61.3 °F 66% 30.40 in 10.0 mi WNW 3.5 mph - N/A   Clear
11:35 AM 74.3 °F - 59.5 °F 60% 30.40 in 10.0 mi West 4.6 mph - N/A   Clear
12:15 PM 77.7 °F - 61.5 °F 57% 30.39 in 10.0 mi Calm Calm - N/A   Clear
12:35 PM 77.7 °F - 60.8 °F 56% 30.39 in 10.0 mi NNW 3.5 mph - N/A   Clear
1:15 PM 78.8 °F - 60.4 °F 53% 30.38 in 10.0 mi West 4.6 mph - N/A   Clear
1:35 PM 79.0 °F - 59.9 °F 52% 30.37 in 10.0 mi NE 3.5 mph - N/A   Scattered Clouds
1:55 PM 78.6 °F - 58.5 °F 50% 30.37 in 10.0 mi South 3.5 mph - N/A   Scattered Clouds
2:15 PM 77.9 °F - 58.1 °F 50% 30.35 in 10.0 mi Calm Calm - N/A   Scattered Clouds
2:35 PM 77.9 °F - 57.2 °F 49% 30.34 in 10.0 mi Calm Calm - N/A   Mostly Cloudy
2:55 PM 78.3 °F - 58.3 °F 50% 30.34 in 10.0 mi Calm Calm - N/A   Scattered Clouds
3:15 PM 80.4 °F 81.1 °F 59.4 °F 49% 30.33 in 10.0 mi Calm Calm - N/A   Clear
3:35 PM 81.1 °F 81.6 °F 59.7 °F 48% 30.32 in 10.0 mi West 3.5 mph - N/A   Scattered Clouds
4:15 PM 82.0 °F 82.2 °F 59.4 °F 46% 30.31 in 10.0 mi NE 4.6 mph - N/A   Mostly Cloudy
4:35 PM 81.5 °F 81.7 °F 58.6 °F 46% 30.30 in 10.0 mi East 3.5 mph - N/A   Overcast
4:55 PM 80.8 °F 81.3 °F 59.2 °F 48% 30.30 in 10.0 mi ESE 3.5 mph - N/A   Mostly Cloudy
5:15 PM 80.8 °F 81.2 °F 58.8 °F 47% 30.30 in 10.0 mi Calm Calm - N/A   Scattered Clouds
5:55 PM 80.6 °F 80.7 °F 56.7 °F 44% 30.30 in 10.0 mi Calm Calm - N/A   Clear
6:15 PM 79.5 °F - 59.0 °F 49% 30.30 in 10.0 mi ESE 4.6 mph - N/A   Clear
6:35 PM 78.4 °F - 59.2 °F 51% 30.30 in 10.0 mi Calm Calm - N/A   Clear
6:55 PM 77.9 °F - 58.3 °F 51% 30.30 in 10.0 mi ESE 3.5 mph - N/A   Clear
7:15 PM 76.1 °F - 59.2 °F 56% 30.30 in 10.0 mi Calm Calm - N/A   Clear
7:35 PM 73.4 °F - 60.4 °F 64% 30.30 in 10.0 mi Calm Calm - N/A   Clear
7:55 PM 72.1 °F - 60.4 °F 67% 30.30 in 10.0 mi Calm Calm - N/A   Clear
8:35 PM 70.5 °F - 59.9 °F 69% 30.31 in 10.0 mi East 3.5 mph - N/A   Clear
8:55 PM 69.1 °F - 60.6 °F 74% 30.32 in 10.0 mi Calm Calm - N/A   Clear
9:15 PM 68.9 °F - 60.3 °F 74% 30.32 in 10.0 mi Calm Calm - N/A   Clear
9:35 PM 68.4 °F - 60.6 °F 76% 30.33 in 10.0 mi Calm Calm - N/A   Clear
9:55 PM 67.1 °F - 60.3 °F 79% 30.33 in 10.0 mi Calm Calm - N/A   Clear
10:15 PM 66.6 °F - 60.8 °F 82% 30.33 in 10.0 mi Calm Calm - N/A   Clear
10:35 PM 66.0 °F - 60.1 °F 81% 30.33 in 10.0 mi Calm Calm - N/A   Clear
10:55 PM 65.7 °F - 61.0 °F 85% 30.33 in 10.0 mi Calm Calm - N/A   Clear
11:15 PM 65.5 °F - 60.3 °F 83% 30.33 in 10.0 mi Calm Calm - N/A   Clear
11:35 PM 64.2 °F - 60.8 °F 89% 30.33 in 10.0 mi Calm Calm - N/A   Clear
11:55 PM 64.9 °F - 60.3 °F 85% 30.33 in 10.0 mi Calm Calm - N/A   Clear